Vorticity
nan nan nan nan nan nan nan nan nan nan nan nan nan nan nan nan nan nan nan nan nan nan nan nan nan nan nan nan nan nan nan nan nan nan nan nan nan nan nan nan nan nan nan
nan 9 8 5 4 5 4 4 4 3 3 3 4 4 4 3 3 3 3 3 3 4 4 4 4 4 4 5 5 5 4 4 4 4 4 6 5 5 4 6 11 8 nan
nan 6 7 7 5 4 4 4 4 4 3 3 4 4 3 3 3 3 3 4 4 4 3 4 4 5 5 5 5 5 5 5 5 5 4 3 4 4 4 8 12 6 nan
nan 6 9 8 6 5 5 4 4 4 2 3 4 4 4 4 3 3 3 3 3 4 4 4 4 4 4 4 5 5 4 5 5 5 7 4 2 2 10 8 4 4 nan
nan 8 10 8 6 5 4 4 4 4 3 3 4 4 4 4 4 4 4 4 3 4 4 4 4 4 3 3 3 4 4 4 5 7 11 7 6 7 7 7 5 6 nan
nan 7 10 7 6 6 5 5 5 5 5 5 4 4 4 4 4 4 4 3 4 5 4 4 3 3 3 3 3 3 4 4 6 8 9 10 7 7 6 7 4 4 nan
nan 7 7 8 6 6 5 6 5 5 5 5 5 5 4 4 4 4 4 4 4 4 4 4 4 4 4 4 5 5 5 4 5 9 6 7 12 10 9 5 6 7 nan
nan 6 7 6 4 6 5 5 4 4 4 4 4 4 4 4 4 4 4 5 4 4 4 4 4 4 5 6 6 6 5 5 6 7 4 11 19 13 6 6 7 8 nan
nan 4 6 6 8 5 4 5 4 4 4 4 5 4 4 4 5 5 5 5 4 4 4 5 5 5 6 6 6 6 6 5 6 5 8 16 13 9 6 7 6 5 nan
nan 5 5 5 5 5 8 8 5 5 5 6 6 5 6 7 7 6 6 5 4 4 5 5 6 8 8 7 6 6 6 10 7 7 9 11 14 8 5 6 5 5 nan
nan 6 5 5 4 5 8 10 9 6 7 7 7 6 5 7 11 10 7 5 6 6 6 9 8 7 14 15 13 10 10 10 8 6 9 15 14 6 5 5 4 5 nan
nan 5 6 6 5 5 5 6 6 7 8 8 8 8 7 6 8 12 13 11 9 8 9 4 7 11 14 16 13 13 14 7 7 7 10 15 9 7 5 5 6 6 nan
nan 5 7 5 5 4 5 6 6 8 7 8 7 6 6 6 7 9 11 14 14 12 10 6 4 7 6 9 14 15 11 11 8 7 13 14 10 6 6 6 5 5 nan
nan 7 6 6 6 3 6 8 7 6 6 7 9 7 6 7 7 8 9 10 7 10 8 4 5 4 6 9 9 10 7 8 9 9 14 15 14 7 6 6 6 6 nan
nan 9 7 6 4 8 7 5 7 8 7 8 8 7 6 6 7 8 8 8 9 7 7 7 7 7 8 9 3 2 5 7 5 8 16 21 11 9 6 7 7 6 nan
nan 9 11 9 4 7 8 7 7 9 9 9 11 9 6 6 7 6 8 9 7 8 8 8 7 7 8 8 7 3 6 8 7 8 11 15 12 11 8 10 8 7 nan
nan 10 13 8 4 6 8 6 7 8 10 9 10 10 7 6 6 6 7 8 7 10 11 8 7 7 7 8 10 6 8 6 9 11 9 6 13 11 8 7 10 9 nan
nan 9 8 6 4 5 6 7 5 6 6 8 9 13 10 5 6 7 7 6 8 9 7 8 10 9 8 6 7 10 7 7 10 9 12 15 8 7 12 9 4 9 nan
nan 6 8 9 6 4 4 7 7 6 6 8 9 10 11 8 6 6 6 7 8 7 8 9 8 6 8 9 9 11 7 7 8 9 3 12 11 7 10 9 13 15 nan
nan 6 6 10 9 4 4 6 7 8 8 9 8 9 11 8 7 6 7 7 7 8 9 8 7 8 7 6 9 11 13 11 11 6 5 11 14 7 5 9 14 17 nan
nan 6 7 9 9 4 6 6 7 9 8 9 9 10 8 8 8 6 7 7 7 10 9 7 8 6 6 10 8 9 10 9 8 6 9 9 7 8 9 12 8 9 nan
nan 5 5 8 9 6 7 6 6 9 9 9 9 11 8 9 8 7 7 8 7 7 9 10 7 7 9 9 8 8 5 7 7 9 7 7 9 8 10 12 11 6 nan
nan 8 5 7 8 7 6 5 6 7 8 9 10 10 11 9 7 8 7 7 8 8 9 9 9 7 7 8 10 5 7 10 9 7 8 10 12 5 13 15 11 7 nan
nan 8 7 6 6 6 7 8 6 7 7 7 9 8 11 10 7 7 6 6 7 7 7 8 9 9 8 7 8 9 10 9 5 7 10 8 8 8 11 13 12 10 nan
nan 9 7 5 6 8 4 5 6 6 7 8 8 9 9 12 12 8 6 6 5 6 8 8 7 8 7 9 7 7 9 9 8 8 6 7 9 9 9 11 13 13 nan
nan nan nan nan nan nan nan nan nan nan nan nan nan nan nan nan nan nan nan nan nan nan nan nan nan nan nan nan nan nan nan nan nan nan nan nan nan nan nan nan nan nan nan
CAPE
743 1344 2384 2429 2358 1659 1383 1151 1105 1019 1129 1328 1559 1429 1427 1508 1573 1671 1661 1609 1554 1553 1651 1636 1518 1338 1179 1200 1265 1209 1132 1231 1419 1449 1415 2092 2006 2249 2344 1445 1689 2176 2418
792 1376 2432 2404 2551 1956 1636 1321 1194 1247 1076 1125 1256 1085 1083 1141 1330 1422 1356 1278 1154 1004 948 901 900 813 758 720 847 1034 972 1006 1088 1315 1477 1535 2190 2204 1988 1692 1561 2324 2144
928 1491 2074 2414 2696 2037 1882 1564 1209 1101 1096 1141 1120 935 1012 978 1160 1265 1199 1077 1101 964 981 1207 1045 1160 1266 1063 845 813 901 839 956 1305 1255 0 7 1820 2058 1684 1742 2285 2058
907 1125 1757 2572 2654 2252 2161 1929 1643 1179 1080 1223 1238 1134 989 941 1027 1135 997 950 930 1043 1035 1181 1213 1133 987 1040 992 871 736 1022 925 1457 1624 17 10 50 854 2009 1725 2053 2047
554 944 1767 2800 2690 2027 2022 2140 1879 1701 1196 1212 1412 1333 1176 1149 1136 1030 1069 1164 1106 1054 1066 1249 1213 1009 840 773 695 690 817 957 1094 1273 593 104 7 29 586 1879 1915 1847 1961
449 1124 2329 2745 2692 2278 2016 2221 2124 2037 1908 1977 1727 1436 1215 1166 1123 1039 962 1041 983 1000 1056 900 715 495 323 206 189 220 415 716 814 525 421 361 75 80 791 1890 1780 1847 1956
719 1308 1921 2690 2584 2580 2712 2737 2660 2560 2268 1819 1613 1364 1199 1166 1208 1195 1142 1282 1515 1212 999 752 576 485 417 363 404 664 627 545 256 170 195 327 244 286 1629 2093 2622 2637 2093
769 1273 1560 2356 2688 2619 2352 2022 1887 1670 1555 1427 1314 1178 1107 1114 1061 942 1041 1246 1353 1279 990 811 703 570 513 628 1004 1522 1156 1036 675 262 121 130 1128 1289 1694 2531 2659 2198 2073
585 840 1120 1376 1423 1709 1914 1680 1590 1447 1258 952 864 838 841 857 993 909 1350 1373 1234 1027 827 617 663 905 1173 1324 1504 2000 1522 1399 1187 856 639 416 1600 1725 2083 2496 2433 2072 2280
272 534 851 975 901 908 1098 1970 1686 1522 921 1114 1327 1127 1127 1031 1144 1484 1963 1817 978 672 516 705 1086 1314 1903 2419 2149 2197 1767 1706 1241 1223 974 646 1648 1867 1925 2249 2104 1926 2407
374 417 419 581 631 518 608 1116 2018 1248 1555 1920 1449 1245 1585 1158 1178 1330 1219 1162 777 693 850 1341 1506 1974 1904 2355 2525 2834 2172 1593 1400 1211 1026 1299 1801 2232 2180 2421 2367 2348 2181
100 165 155 264 379 263 466 552 1138 1035 899 912 956 891 861 915 721 735 940 2052 1891 2145 2478 1440 128 174 97 1016 1312 2067 1563 1531 1491 1123 994 1927 1975 2498 2496 2255 2188 2123 2120
1 45 57 122 164 130 161 506 916 1069 595 429 579 544 663 741 403 406 437 653 1099 1884 792 91 138 216 204 412 868 1186 1226 1268 1291 1048 1001 2341 2201 2586 2543 2164 2082 2205 2324
31 50 93 44 50 61 38 276 238 540 609 490 517 617 752 803 654 457 883 988 904 1105 489 253 0 155 112 92 207 121 214 221 894 869 828 2632 2377 2550 2814 2586 2080 2165 2347
77 31 71 33 31 21 379 256 243 345 565 543 649 757 763 397 267 538 846 1368 1212 1375 628 58 190 331 165 299 480 213 17 52 17 724 711 2604 2212 2275 2622 2529 2229 2211 2312
0 8 11 33 47 261 482 607 387 327 411 179 626 522 387 230 231 790 1291 1014 756 903 780 310 273 251 154 479 32 5 17 6 0 4 749 899 2140 2022 2217 2163 2513 2548 2430
0 0 156 78 153 584 551 488 941 488 410 81 184 292 288 534 544 583 900 721 686 1272 1149 747 921 644 616 467 520 347 49 224 78 367 930 298 672 837 717 689 2183 2552 2575
0 0 299 191 286 489 1133 667 844 797 695 590 160 697 499 406 254 918 845 651 606 836 1243 1198 1170 1332 704 463 346 269 9 364 524 496 838 105 563 334 436 447 150 2217 2299
0 0 39 254 250 493 809 1364 765 912 786 570 466 320 595 706 595 665 890 1182 1174 986 818 1621 1298 1032 1214 1139 987 148 130 503 7 822 536 236 352 399 10 81 377 1515 2474
0 11 46 286 510 512 874 830 995 682 697 639 226 264 737 705 676 923 862 917 1161 1309 844 1294 836 12 509 1191 1722 925 973 440 522 407 0 133 1232 1341 735 373 741 891 2001
27 97 246 211 758 787 1053 790 880 889 566 429 360 191 845 816 1099 1405 1267 1127 1362 1470 1003 1376 748 437 1323 1405 1033 1169 360 415 53 1 2 34 458 645 418 883 344 0 262
94 109 210 346 1183 965 1045 853 669 669 544 379 256 209 234 1074 1262 1244 1531 1255 1029 1289 1834 1901 2109 1707 1668 1569 1139 627 866 320 0 0 0 0 0 135 918 1062 781 664 736
233 282 403 972 1177 1012 1084 909 1008 630 585 721 324 259 616 635 851 1056 1288 1494 1221 1022 1416 1623 1926 1986 1681 1550 1436 889 757 723 566 12 0 0 33 189 241 1318 981 717 666
88 654 643 929 1515 1078 1054 1127 1307 1304 893 779 1030 698 788 925 856 1058 1111 1342 1901 1999 1757 1268 1303 1854 2050 1670 1462 1527 1085 948 354 677 404 242 242 131 7 1167 1383 902 797
195 518 1053 1020 1881 1232 1350 1653 1163 1543 1199 1178 1544 1153 1111 1425 912 921 1067 1373 1673 1777 1785 1618 1724 2017 1930 1753 1515 1445 1075 1129 781 772 674 656 471 351 166 731 1102 1366 1105
144 529 1312 1179 1422 1873 1222 1420 1907 1615 1527 1660 1521 1444 1289 1618 2145 1250 1245 1487 1818 2157 2155 1870 1781 1611 1792 1728 1738 1713 1465 1111 879 841 651 717 704 516 701 1173 668 229 33